Content
SEND FEEDBACK

Daily
Averages
Monthly
Summary
United States of America

GREENFIELD, MASSACHUSETTS


Home > North America > United States > Massachusetts
Elevation: 58 meters     Latitude: 42 37N     Longitude: 072 33W

WEATHER
 
SELECT A DAY
Number of Records: 215,783;   Date Range: 7/1/96 - 10/22/14
 
SHARE

PRINT THIS DATA

[ ← Previous Day ]
WEATHER ALMANAC - 12 FEBRUARY, 2014
[ Next Day → ]
[ °F ]   °C
Weather ElementAverageHighLow
Temperature-13.2 °C-4.4 °C (2:52 pm)-23.3 °C (6:52 am)
Dewpoint-20.6 °C (7:52 pm)-26.7 °C (6:52 am)
Humidity59 %83 % (7:52 am)28 % (3:52 pm)
Barometer1032.5 hPa1035.6 hPa (9:52 am)1029.1 hPa (11:07 pm)
Wind Speed3.9 km/h16.7 km/h (2:52 pm)
Weather ElementAverage
Visibility15.4 km
Wind DirectionESE (101.3 °)

Weather ElementTotal
Precipitation---
Heating Degree Days32.2 (Base 18.3)
Averaged from 24 records on 12 February, 2014
WEATHER CONDITIONS BREAKOUT
WIND DIRECTION BREAKOUT
WEATHER BY HOUR - 12 FEBRUARY, 2014
[ °F ]   °C
Local TimeTemperatureDewpointHumidityBarometerVisibilityWind DirectionWind SpeedGust SpeedPrecipitationEventsConditions
1:52 AM-15.6 °C-19.4 °C73 %1032.2 hPa16.1 kmNorth (360°)7.4 km/hClear
2:52 AM-17.8 °C-21.1 °C76 %1032.5 hPa16.1 kmNorth (350°)11.1 km/hClear
3:52 AM-20 °C-22.8 °C79 %1032.8 hPa16.1 kmENE (70°)5.6 km/hClear
4:52 AM-21.1 °C-23.9 °C79 %1033.2 hPa16.1 kmNNW (330°)7.4 km/hClear
5:52 AM-20.6 °C-23.3 °C80 %1033.9 hPa16.1 kmCalmClear
6:52 AM-23.3 °C-26.7 °C74 %1034.5 hPa11.3 kmCalmClear
7:52 AM-22.2 °C-24.4 °C83 %1034.2 hPa12.9 kmCalmClear
8:52 AM-15 °C-20 °C66 %1035.2 hPa16.1 kmCalmClear
9:52 AM-11.7 °C-20.6 °C49 %1035.6 hPa16.1 kmNorth (360°)11.1 km/hClear
10:52 AM-10 °C-20.6 °C43 %1034.5 hPa16.1 kmCalmClear
11:52 AM-6.7 °C-21.1 °C32 %1033.9 hPa16.1 kmCalmClear
12:52 PM-5.6 °C-21.1 °C29 %1033.9 hPa16.1 kmSSW (200°)9.3 km/hClear
1:52 PM-5 °C-20 °C31 %1032.8 hPa16.1 kmSSW (200°)9.3 km/hClear
2:52 PM-4.4 °C-20 °C29 %1032.2 hPa16.1 kmSSW (200°)16.7 km/hClear
3:52 PM-4.4 °C-20.6 °C28 %1031.5 hPa16.1 kmSouth (170°)7.4 km/hClear
4:52 PM-5 °C-20.6 °C29 %1031.2 hPa16.1 kmSouth (190°)5.6 km/hClear
5:52 PM-9.4 °C-18.9 °C47 %1031.8 hPa16.1 kmCalmClear
6:52 PM-11.7 °C-19.4 °C54 %1031.5 hPa16.1 kmCalmClear
7:52 PM-12.2 °C-17.8 °C64 %1031.5 hPa16.1 kmCalmClear
8:52 PM-13.9 °C-18.3 °C70 %1030.8 hPa14.5 kmCalmClear
9:52 PM-15.6 °C-18.9 °C76 %1030.8 hPa14.5 kmCalmClear
10:52 PM-15.6 °C-18.9 °C76 %1030.8 hPa14.5 kmCalmPartly Cloudy
11:07 PM-15.6 °C-18.9 °C76 %1029.1 hPa16.1 kmCalmMostly Cloudy
11:52 PM-13.9 °C-17.8 °C73 %1029.1 hPa14.5 kmCalmOvercast
Hourly data recorded from KORE, located 0 kilometers away from Greenfield, Massachusetts







STORIES FROM OUR PARTNERS